Missouri River (Missouri), Jefferson City (06910450)

StateMissouriLatestUnknown (114000 cfs)
RiverMissouri RiverRatingObservedEstimated
Updated2020-08-11 18:45 (1 hour ago)Flood - The river is flooding. Obstacles can be treacherous or deadly. The river should be avoided at this stage for casual trips and definitely for the inexperienced. Trips should be attempted only with protective gear and equipment.Flood(none)(none)
Discharge114000 cfs (median: 84900 cfs)High - The river is high and potentially dangerous, especially for the young and / or inexperienced. Normal stream obstacles are sometimes difficult to navigate. Extended distances can be attempted, but canoe travel may not be advisable.High(none)(none)
Height15.02 feetGood - Conditions are ideal for a canoe or kayak. Boats typically will drag on fewer than one-quarter of riffles, if at all, and portages are unnecessary or rare. Normal float lengths can be attempted without a problem.Good(none)(none)
TrendSteady (rising over 24 hours)Low - River is low but can still be floated. Some riffles are okay but most come with significant dragging and might need a portage. Float lengths should be reduced to accommodate low flow, dragging, and portages.Low(none)(none)
USGSExternal icon USGS Site (External icon Google Maps)Poor - River is too low to float comfortably. Most or all riffles will drag or must be portaged and some obstacles (such as slick shelf rock) cause undue problems. Avoid the river at this stage for casual paddling trips.Poor(none)(none)

Trending Data

Plot Image

Trips for Missouri River (Missouri), Jefferson City (06910450)

DateStartEndDistanceConditionDischargeHeightFishingDetails

A total of 0 rows are displayed.

Condition Descriptions

Fishing Conditions

Fish Species

Notes

Classic Trip List

The classic River Trips application is still available for use. It is updated with the new system using a data retrofit. It is no longer maintained. The original River Trips application is no longer updated (as of 1 Dec 2016) but can be checked for errors or for the condition of the data before it was converted to the new system.

Gauge Data Table

ObservationHeightDischargeMaximum
Discharge
Minimum
Discharge
Mean
Discharge
P05P10P20P25P50
(Median)
P75P80P90P95
2020-08-11 18:45 15.02 114000 130000 (2019) 62200 (2016) 88400 63000 64100 84900 115000 124000
2020-08-11 17:45 15.03 114000 130000 (2019) 62200 (2016) 88400 63000 64100 84900 115000 124000
2020-08-11 16:45 15.10 115000 130000 (2019) 62200 (2016) 88400 63000 64100 84900 115000 124000
2020-08-11 15:45 15.15 116000 130000 (2019) 62200 (2016) 88400 63000 64100 84900 115000 124000
2020-08-11 14:45 15.15 116000 130000 (2019) 62200 (2016) 88400 63000 64100 84900 115000 124000
2020-08-11 13:45 15.18 116000 130000 (2019) 62200 (2016) 88400 63000 64100 84900 115000 124000
2020-08-11 12:45 15.18 116000 130000 (2019) 62200 (2016) 88400 63000 64100 84900 115000 124000
2020-08-11 11:45 15.13 116000 130000 (2019) 62200 (2016) 88400 63000 64100 84900 115000 124000
2020-08-11 10:45 15.17 116000 130000 (2019) 62200 (2016) 88400 63000 64100 84900 115000 124000
2020-08-11 09:45 15.10 115000 130000 (2019) 62200 (2016) 88400 63000 64100 84900 115000 124000
2020-08-11 08:45 15.06 115000 130000 (2019) 62200 (2016) 88400 63000 64100 84900 115000 124000
2020-08-11 07:45 15.03 114000 130000 (2019) 62200 (2016) 88400 63000 64100 84900 115000 124000
2020-08-11 06:45 14.92 113000 130000 (2019) 62200 (2016) 88400 63000 64100 84900 115000 124000
2020-08-11 05:45 14.80 112000 130000 (2019) 62200 (2016) 88400 63000 64100 84900 115000 124000
2020-08-11 04:45 14.70 111000 130000 (2019) 62200 (2016) 88400 63000 64100 84900 115000 124000
2020-08-11 03:45 14.64 110000 130000 (2019) 62200 (2016) 88400 63000 64100 84900 115000 124000
2020-08-11 02:45 14.53 109000 130000 (2019) 62200 (2016) 88400 63000 64100 84900 115000 124000
2020-08-11 01:45 14.44 108000 130000 (2019) 62200 (2016) 88400 63000 64100 84900 115000 124000
2020-08-11 00:45 14.33 107000 130000 (2019) 62200 (2016) 88400 63000 64100 84900 115000 124000
2020-08-10 23:45 14.23 106000 133000 (2019) 65800 (2016) 87100 66100 66500 83200 110000 124000
2020-08-10 22:45 14.14 105000 133000 (2019) 65800 (2016) 87100 66100 66500 83200 110000 124000
2020-08-10 21:45 13.99 104000 133000 (2019) 65800 (2016) 87100 66100 66500 83200 110000 124000
2020-08-10 20:45 13.93 104000 133000 (2019) 65800 (2016) 87100 66100 66500 83200 110000 124000
2020-08-10 19:45 13.84 103000 133000 (2019) 65800 (2016) 87100 66100 66500 83200 110000 124000
2020-08-10 18:45 13.80 102000 133000 (2019) 65800 (2016) 87100 66100 66500 83200 110000 124000
2020-08-10 17:45 13.70 101000 133000 (2019) 65800 (2016) 87100 66100 66500 83200 110000 124000
2020-08-10 16:45 13.56 100000 133000 (2019) 65800 (2016) 87100 66100 66500 83200 110000 124000
2020-08-10 15:45 13.50 99700 133000 (2019) 65800 (2016) 87100 66100 66500 83200 110000 124000
2020-08-10 14:45 13.43 99000 133000 (2019) 65800 (2016) 87100 66100 66500 83200 110000 124000
2020-08-10 13:45 13.34 98300 133000 (2019) 65800 (2016) 87100 66100 66500 83200 110000 124000
2020-08-10 12:45 13.30 97900 133000 (2019) 65800 (2016) 87100 66100 66500 83200 110000 124000
2020-08-10 11:45 13.20 97000 133000 (2019) 65800 (2016) 87100 66100 66500 83200 110000 124000
2020-08-10 10:45 13.12 96300 133000 (2019) 65800 (2016) 87100 66100 66500 83200 110000 124000
2020-08-10 09:45 13.06 95800 133000 (2019) 65800 (2016) 87100 66100 66500 83200 110000 124000
2020-08-10 08:45 13.00 95300 133000 (2019) 65800 (2016) 87100 66100 66500 83200 110000 124000
2020-08-10 07:45 12.94 94700 133000 (2019) 65800 (2016) 87100 66100 66500 83200 110000 124000
2020-08-10 06:45 12.91 94500 133000 (2019) 65800 (2016) 87100 66100 66500 83200 110000 124000
2020-08-10 05:45 12.89 94300 133000 (2019) 65800 (2016) 87100 66100 66500 83200 110000 124000
2020-08-10 04:45 12.86 94100 133000 (2019) 65800 (2016) 87100 66100 66500 83200 110000 124000
2020-08-10 03:45 12.82 93700 133000 (2019) 65800 (2016) 87100 66100 66500 83200 110000 124000
2020-08-10 02:45 12.80 93500 133000 (2019) 65800 (2016) 87100 66100 66500 83200 110000 124000
2020-08-10 01:45 12.77 93300 133000 (2019) 65800 (2016) 87100 66100 66500 83200 110000 124000
2020-08-10 00:45 12.78 93400 133000 (2019) 65800 (2016) 87100 66100 66500 83200 110000 124000
2020-08-09 23:45 12.74 93000 135000 (2019) 71600 (2016) 93100 73700 76700 86500 113000 126000
2020-08-09 22:45 12.76 93200 135000 (2019) 71600 (2016) 93100 73700 76700 86500 113000 126000
2020-08-09 21:45 12.76 93200 135000 (2019) 71600 (2016) 93100 73700 76700 86500 113000 126000
2020-08-09 20:45 12.73 93000 135000 (2019) 71600 (2016) 93100 73700 76700 86500 113000 126000
2020-08-09 19:45 12.74 93000 135000 (2019) 71600 (2016) 93100 73700 76700 86500 113000 126000
2020-08-09 18:45 12.76 93200 135000 (2019) 71600 (2016) 93100 73700 76700 86500 113000 126000
2020-08-09 17:45 12.76 93200 135000 (2019) 71600 (2016) 93100 73700 76700 86500 113000 126000
2020-08-09 16:45 12.77 93300 135000 (2019) 71600 (2016) 93100 73700 76700 86500 113000 126000
2020-08-09 15:45 12.78 93400 135000 (2019) 71600 (2016) 93100 73700 76700 86500 113000 126000
2020-08-09 14:45 12.82 93700 135000 (2019) 71600 (2016) 93100 73700 76700 86500 113000 126000
2020-08-09 13:45 12.83 93800 135000 (2019) 71600 (2016) 93100 73700 76700 86500 113000 126000
2020-08-09 12:45 12.82 93700 135000 (2019) 71600 (2016) 93100 73700 76700 86500 113000 126000
2020-08-09 11:45 12.84 93900 135000 (2019) 71600 (2016) 93100 73700 76700 86500 113000 126000
2020-08-09 10:45 12.86 94100 135000 (2019) 71600 (2016) 93100 73700 76700 86500 113000 126000
2020-08-09 09:45 12.88 94200 135000 (2019) 71600 (2016) 93100 73700 76700 86500 113000 126000
2020-08-09 08:45 12.87 94100 135000 (2019) 71600 (2016) 93100 73700 76700 86500 113000 126000
2020-08-09 07:45 12.91 94500 135000 (2019) 71600 (2016) 93100 73700 76700 86500 113000 126000
2020-08-09 06:45 12.92 94600 135000 (2019) 71600 (2016) 93100 73700 76700 86500 113000 126000
2020-08-09 05:45 12.93 94700 135000 (2019) 71600 (2016) 93100 73700 76700 86500 113000 126000
2020-08-09 04:45 12.97 95000 135000 (2019) 71600 (2016) 93100 73700 76700 86500 113000 126000
2020-08-09 03:45 12.97 95000 135000 (2019) 71600 (2016) 93100 73700 76700 86500 113000 126000
2020-08-09 02:45 12.98 95100 135000 (2019) 71600 (2016) 93100 73700 76700 86500 113000 126000
2020-08-09 01:45 13.00 95300 135000 (2019) 71600 (2016) 93100 73700 76700 86500 113000 126000
2020-08-09 00:45 12.99 95200 135000 (2019) 71600 (2016) 93100 73700 76700 86500 113000 126000
2020-08-08 23:45 12.98 95100 136000 (2019) 84500 (2016) 102000 84800 85400 100000 119000 129000
2020-08-08 22:45 13.01 95400 136000 (2019) 84500 (2016) 102000 84800 85400 100000 119000 129000
2020-08-08 21:45 13.06 95800 136000 (2019) 84500 (2016) 102000 84800 85400 100000 119000 129000
2020-08-08 20:45 13.06 95800 136000 (2019) 84500 (2016) 102000 84800 85400 100000 119000 129000
2020-08-08 19:45 13.08 96000 136000 (2019) 84500 (2016) 102000 84800 85400 100000 119000 129000
2020-08-08 18:45 13.09 96100 136000 (2019) 84500 (2016) 102000 84800 85400 100000 119000 129000
2020-08-08 17:45 13.08 96000 136000 (2019) 84500 (2016) 102000 84800 85400 100000 119000 129000
2020-08-08 16:45 13.09 96100 136000 (2019) 84500 (2016) 102000 84800 85400 100000 119000 129000
2020-08-08 15:45 13.12 96300 136000 (2019) 84500 (2016) 102000 84800 85400 100000 119000 129000
2020-08-08 14:45 13.16 96600 136000 (2019) 84500 (2016) 102000 84800 85400 100000 119000 129000
2020-08-08 13:45 13.12 96300 136000 (2019) 84500 (2016) 102000 84800 85400 100000 119000 129000
2020-08-08 12:45 13.17 96700 136000 (2019) 84500 (2016) 102000 84800 85400 100000 119000 129000
2020-08-08 11:45 13.21 97100 136000 (2019) 84500 (2016) 102000 84800 85400 100000 119000 129000
2020-08-08 10:45 13.20 97000 136000 (2019) 84500 (2016) 102000 84800 85400 100000 119000 129000
2020-08-08 09:45 13.25 97400 136000 (2019) 84500 (2016) 102000 84800 85400 100000 119000 129000
2020-08-08 08:45 13.22 97200 136000 (2019) 84500 (2016) 102000 84800 85400 100000 119000 129000
2020-08-08 07:45 13.24 97400 136000 (2019) 84500 (2016) 102000 84800 85400 100000 119000 129000
2020-08-08 06:45 13.24 97400 136000 (2019) 84500 (2016) 102000 84800 85400 100000 119000 129000
2020-08-08 05:45 13.27 97600 136000 (2019) 84500 (2016) 102000 84800 85400 100000 119000 129000
2020-08-08 04:45 13.27 97600 136000 (2019) 84500 (2016) 102000 84800 85400 100000 119000 129000
2020-08-08 03:45 13.28 97700 136000 (2019) 84500 (2016) 102000 84800 85400 100000 119000 129000
2020-08-08 02:45 13.31 98000 136000 (2019) 84500 (2016) 102000 84800 85400 100000 119000 129000
2020-08-08 01:45 13.31 98000 136000 (2019) 84500 (2016) 102000 84800 85400 100000 119000 129000
2020-08-08 00:45 13.33 98200 136000 (2019) 84500 (2016) 102000 84800 85400 100000 119000 129000
2020-08-07 23:45 13.36 98500 140000 (2019) 65500 (2017) 98800 69600 75700 92700 125000 134000
2020-08-07 22:45 13.37 98600 140000 (2019) 65500 (2017) 98800 69600 75700 92700 125000 134000
2020-08-07 21:45 13.40 98700 140000 (2019) 65500 (2017) 98800 69600 75700 92700 125000 134000
2020-08-07 20:45 13.40 98700 140000 (2019) 65500 (2017) 98800 69600 75700 92700 125000 134000
2020-08-07 19:45 13.40 98700 140000 (2019) 65500 (2017) 98800 69600 75700 92700 125000 134000
2020-08-07 18:45 13.43 99000 140000 (2019) 65500 (2017) 98800 69600 75700 92700 125000 134000
2020-08-07 17:45 13.44 99100 140000 (2019) 65500 (2017) 98800 69600 75700 92700 125000 134000
2020-08-07 16:45 13.42 98900 140000 (2019) 65500 (2017) 98800 69600 75700 92700 125000 134000
2020-08-07 15:45 13.44 99100 140000 (2019) 65500 (2017) 98800 69600 75700 92700 125000 134000
2020-08-07 14:45 13.46 99300 140000 (2019) 65500 (2017) 98800 69600 75700 92700 125000 134000
2020-08-07 13:45 13.45 99200 140000 (2019) 65500 (2017) 98800 69600 75700 92700 125000 134000
2020-08-07 12:45 13.47 99400 140000 (2019) 65500 (2017) 98800 69600 75700 92700 125000 134000
2020-08-07 11:45 13.47 99400 140000 (2019) 65500 (2017) 98800 69600 75700 92700 125000 134000
2020-08-07 10:45 13.49 99600 140000 (2019) 65500 (2017) 98800 69600 75700 92700 125000 134000
2020-08-07 09:45 13.49 99600 140000 (2019) 65500 (2017) 98800 69600 75700 92700 125000 134000
2020-08-07 08:45 13.46 99300 140000 (2019) 65500 (2017) 98800 69600 75700 92700 125000 134000
2020-08-07 07:45 13.48 99500 140000 (2019) 65500 (2017) 98800 69600 75700 92700 125000 134000
2020-08-07 06:45 13.50 99700 140000 (2019) 65500 (2017) 98800 69600 75700 92700 125000 134000
2020-08-07 05:45 13.46 99300 140000 (2019) 65500 (2017) 98800 69600 75700 92700 125000 134000
2020-08-07 04:45 13.50 99700 140000 (2019) 65500 (2017) 98800 69600 75700 92700 125000 134000
2020-08-07 03:45 13.51 99800 140000 (2019) 65500 (2017) 98800 69600 75700 92700 125000 134000
2020-08-07 02:45 13.53 99900 140000 (2019) 65500 (2017) 98800 69600 75700 92700 125000 134000
2020-08-07 01:45 13.49 99600 140000 (2019) 65500 (2017) 98800 69600 75700 92700 125000 134000
2020-08-07 00:45 13.54 100000 140000 (2019) 65500 (2017) 98800 69600 75700 92700 125000 134000
2020-08-06 23:45 13.55 100000 142000 (2019) 53200 (2017) 96900 59800 69800 90200 128000 136000
2020-08-06 22:45 13.55 100000 142000 (2019) 53200 (2017) 96900 59800 69800 90200 128000 136000
2020-08-06 21:45 13.57 100000 142000 (2019) 53200 (2017) 96900 59800 69800 90200 128000 136000
2020-08-06 20:45 13.64 101000 142000 (2019) 53200 (2017) 96900 59800 69800 90200 128000 136000
2020-08-06 19:45 13.68 101000 142000 (2019) 53200 (2017) 96900 59800 69800 90200 128000 136000
2020-08-06 18:45 13.71 102000 142000 (2019) 53200 (2017) 96900 59800 69800 90200 128000 136000
2020-08-06 17:45 13.70 101000 142000 (2019) 53200 (2017) 96900 59800 69800 90200 128000 136000
2020-08-06 16:45 13.71 102000 142000 (2019) 53200 (2017) 96900 59800 69800 90200 128000 136000
2020-08-06 15:45 13.76 102000 142000 (2019) 53200 (2017) 96900 59800 69800 90200 128000 136000
2020-08-06 14:45 13.77 102000 142000 (2019) 53200 (2017) 96900 59800 69800 90200 128000 136000
2020-08-06 13:45 13.80 102000 142000 (2019) 53200 (2017) 96900 59800 69800 90200 128000 136000
2020-08-06 12:45 13.82 103000 142000 (2019) 53200 (2017) 96900 59800 69800 90200 128000 136000
2020-08-06 11:45 13.85 103000 142000 (2019) 53200 (2017) 96900 59800 69800 90200 128000 136000
2020-08-06 10:45 13.89 103000 142000 (2019) 53200 (2017) 96900 59800 69800 90200 128000 136000
2020-08-06 09:45 13.89 103000 142000 (2019) 53200 (2017) 96900 59800 69800 90200 128000 136000
2020-08-06 08:45 13.96 104000 142000 (2019) 53200 (2017) 96900 59800 69800 90200 128000 136000
2020-08-06 07:45 13.97 104000 142000 (2019) 53200 (2017) 96900 59800 69800 90200 128000 136000
2020-08-06 06:45 14.01 104000 142000 (2019) 53200 (2017) 96900 59800 69800 90200 128000 136000
2020-08-06 05:45 14.03 105000 142000 (2019) 53200 (2017) 96900 59800 69800 90200 128000 136000
2020-08-06 04:45 14.08 105000 142000 (2019) 53200 (2017) 96900 59800 69800 90200 128000 136000
2020-08-06 03:45 14.14 105000 142000 (2019) 53200 (2017) 96900 59800 69800 90200 128000 136000
2020-08-06 02:45 14.17 106000 142000 (2019) 53200 (2017) 96900 59800 69800 90200 128000 136000
2020-08-06 01:45 14.15 106000 142000 (2019) 53200 (2017) 96900 59800 69800 90200 128000 136000
2020-08-06 00:45 14.24 106000 142000 (2019) 53200 (2017) 96900 59800 69800 90200 128000 136000
2020-08-05 23:45 14.25 107000 149000 (2019) 53400 (2017) 102000 60300 70600 105000 133000 143000
2020-08-05 22:45 14.33 107000 149000 (2019) 53400 (2017) 102000 60300 70600 105000 133000 143000
2020-08-05 21:45 14.40 108000 149000 (2019) 53400 (2017) 102000 60300 70600 105000 133000 143000
2020-08-05 20:45 14.41 108000 149000 (2019) 53400 (2017) 102000 60300 70600 105000 133000 143000
2020-08-05 19:45 14.47 109000 149000 (2019) 53400 (2017) 102000 60300 70600 105000 133000 143000
2020-08-05 18:45 14.49 109000 149000 (2019) 53400 (2017) 102000 60300 70600 105000 133000 143000
2020-08-05 17:45 14.51 109000 149000 (2019) 53400 (2017) 102000 60300 70600 105000 133000 143000
2020-08-05 16:45 14.59 110000 149000 (2019) 53400 (2017) 102000 60300 70600 105000 133000 143000
2020-08-05 15:45 14.62 110000 149000 (2019) 53400 (2017) 102000 60300 70600 105000 133000 143000
2020-08-05 14:45 14.68 111000 149000 (2019) 53400 (2017) 102000 60300 70600 105000 133000 143000
2020-08-05 13:45 14.72 111000 149000 (2019) 53400 (2017) 102000 60300 70600 105000 133000 143000
2020-08-05 12:45 14.75 111000 149000 (2019) 53400 (2017) 102000 60300 70600 105000 133000 143000
2020-08-05 11:45 14.78 112000 149000 (2019) 53400 (2017) 102000 60300 70600 105000 133000 143000
2020-08-05 10:45 14.81 112000 149000 (2019) 53400 (2017) 102000 60300 70600 105000 133000 143000
2020-08-05 09:45 14.84 112000 149000 (2019) 53400 (2017) 102000 60300 70600 105000 133000 143000
2020-08-05 08:45 14.85 113000 149000 (2019) 53400 (2017) 102000 60300 70600 105000 133000 143000
2020-08-05 07:45 14.90 113000 149000 (2019) 53400 (2017) 102000 60300 70600 105000 133000 143000
2020-08-05 06:45 14.93 113000 149000 (2019) 53400 (2017) 102000 60300 70600 105000 133000 143000
2020-08-05 05:45 14.97 114000 149000 (2019) 53400 (2017) 102000 60300 70600 105000 133000 143000
2020-08-05 04:45 15.03 114000 149000 (2019) 53400 (2017) 102000 60300 70600 105000 133000 143000
2020-08-05 03:45 15.03 114000 149000 (2019) 53400 (2017) 102000 60300 70600 105000 133000 143000
2020-08-05 02:45 15.07 115000 149000 (2019) 53400 (2017) 102000 60300 70600 105000 133000 143000
2020-08-05 01:45 15.12 115000 149000 (2019) 53400 (2017) 102000 60300 70600 105000 133000 143000
2020-08-05 00:45 15.16 116000 149000 (2019) 53400 (2017) 102000 60300 70600 105000 133000 143000
2020-08-04 23:45 15.21 116000 157000 (2019) 55300 (2017) 112000 62100 72400 124000 145000 152000
2020-08-04 22:45 15.29 117000 157000 (2019) 55300 (2017) 112000 62100 72400 124000 145000 152000
2020-08-04 21:45 15.30 117000 157000 (2019) 55300 (2017) 112000 62100 72400 124000 145000 152000
2020-08-04 20:45 15.34 118000 157000 (2019) 55300 (2017) 112000 62100 72400 124000 145000 152000
2020-08-04 19:45 15.41 119000 157000 (2019) 55300 (2017) 112000 62100 72400 124000 145000 152000
2020-08-04 18:45 15.47 119000 157000 (2019) 55300 (2017) 112000 62100 72400 124000 145000 152000
2020-08-04 17:45 15.54 120000 157000 (2019) 55300 (2017) 112000 62100 72400 124000 145000 152000
2020-08-04 16:45 15.57 120000 157000 (2019) 55300 (2017) 112000 62100 72400 124000 145000 152000
2020-08-04 15:45 15.60 121000 157000 (2019) 55300 (2017) 112000 62100 72400 124000 145000 152000
2020-08-04 14:45 15.67 121000 157000 (2019) 55300 (2017) 112000 62100 72400 124000 145000 152000
2020-08-04 13:45 15.70 122000 157000 (2019) 55300 (2017) 112000 62100 72400 124000 145000 152000
2020-08-04 12:45 15.74 122000 157000 (2019) 55300 (2017) 112000 62100 72400 124000 145000 152000
2020-08-04 11:45 15.78 123000 157000 (2019) 55300 (2017) 112000 62100 72400 124000 145000 152000
2020-08-04 10:45 15.87 124000 157000 (2019) 55300 (2017) 112000 62100 72400 124000 145000 152000
2020-08-04 09:45 15.90 124000 157000 (2019) 55300 (2017) 112000 62100 72400 124000 145000 152000
2020-08-04 08:45 15.94 125000 157000 (2019) 55300 (2017) 112000 62100 72400 124000 145000 152000
2020-08-04 07:45 15.94 125000 157000 (2019) 55300 (2017) 112000 62100 72400 124000 145000 152000
2020-08-04 06:45 16.03 126000 157000 (2019) 55300 (2017) 112000 62100 72400 124000 145000 152000
2020-08-04 05:45 16.07 126000 157000 (2019) 55300 (2017) 112000 62100 72400 124000 145000 152000
2020-08-04 04:45 16.16 127000 157000 (2019) 55300 (2017) 112000 62100 72400 124000 145000 152000
2020-08-04 03:45 16.18 127000 157000 (2019) 55300 (2017) 112000 62100 72400 124000 145000 152000
2020-08-04 02:45 16.31 129000 157000 (2019) 55300 (2017) 112000 62100 72400 124000 145000 152000
2020-08-04 01:45 16.36 130000 157000 (2019) 55300 (2017) 112000 62100 72400 124000 145000 152000
2020-08-04 00:45 16.46 131000 157000 (2019) 55300 (2017) 112000 62100 72400 124000 145000 152000
2020-08-03 23:45 16.55 132000 158000 (2019) 60500 (2017) 118000 66600 75600 127000 155000 157000
2020-08-03 22:45 16.67 133000 158000 (2019) 60500 (2017) 118000 66600 75600 127000 155000 157000
2020-08-03 21:45 16.74 134000 158000 (2019) 60500 (2017) 118000 66600 75600 127000 155000 157000
2020-08-03 20:45 16.85 136000 158000 (2019) 60500 (2017) 118000 66600 75600 127000 155000 157000
2020-08-03 19:45 16.98 137000 158000 (2019) 60500 (2017) 118000 66600 75600 127000 155000 157000
2020-08-03 18:45 17.02 138000 158000 (2019) 60500 (2017) 118000 66600 75600 127000 155000 157000
2020-08-03 17:45 17.20 140000 158000 (2019) 60500 (2017) 118000 66600 75600 127000 155000 157000
2020-08-03 16:45 17.28 141000 158000 (2019) 60500 (2017) 118000 66600 75600 127000 155000 157000
2020-08-03 15:45 17.34 142000 158000 (2019) 60500 (2017) 118000 66600 75600 127000 155000 157000
2020-08-03 14:45 17.48 144000 158000 (2019) 60500 (2017) 118000 66600 75600 127000 155000 157000
2020-08-03 13:45 17.62 145000 158000 (2019) 60500 (2017) 118000 66600 75600 127000 155000 157000
2020-08-03 12:45 17.73 147000 158000 (2019) 60500 (2017) 118000 66600 75600 127000 155000 157000
2020-08-03 11:45 17.87 149000 158000 (2019) 60500 (2017) 118000 66600 75600 127000 155000 157000
2020-08-03 10:45 18.06 151000 158000 (2019) 60500 (2017) 118000 66600 75600 127000 155000 157000
2020-08-03 09:45 18.16 153000 158000 (2019) 60500 (2017) 118000 66600 75600 127000 155000 157000
2020-08-03 08:45 18.27 154000 158000 (2019) 60500 (2017) 118000 66600 75600 127000 155000 157000
2020-08-03 07:45 18.36 155000 158000 (2019) 60500 (2017) 118000 66600 75600 127000 155000 157000
2020-08-03 06:45 18.54 158000 158000 (2019) 60500 (2017) 118000 66600 75600 127000 155000 157000
2020-08-03 05:45 18.73 161000 158000 (2019) 60500 (2017) 118000 66600 75600 127000 155000 157000
2020-08-03 04:45 18.83 162000 158000 (2019) 60500 (2017) 118000 66600 75600 127000 155000 157000
2020-08-03 03:45 18.99 164000 158000 (2019) 60500 (2017) 118000 66600 75600 127000 155000 157000
2020-08-03 02:45 19.20 167000 158000 (2019) 60500 (2017) 118000 66600 75600 127000 155000 157000
2020-08-03 01:45 19.29 168000 158000 (2019) 60500 (2017) 118000 66600 75600 127000 155000 157000
2020-08-03 00:45 19.47 171000 158000 (2019) 60500 (2017) 118000 66600 75600 127000 155000 157000
2020-08-02 23:45 19.65 174000 165000 (2015) 65300 (2017) 116000 70600 78600 96600 163000 164000
2020-08-02 22:45 19.76 175000 165000 (2015) 65300 (2017) 116000 70600 78600 96600 163000 164000
2020-08-02 21:45 19.96 178000 165000 (2015) 65300 (2017) 116000 70600 78600 96600 163000 164000
2020-08-02 20:45 20.01 179000 165000 (2015) 65300 (2017) 116000 70600 78600 96600 163000 164000
2020-08-02 19:45 20.17 181000 165000 (2015) 65300 (2017) 116000 70600 78600 96600 163000 164000
2020-08-02 18:45 20.30 183000 165000 (2015) 65300 (2017) 116000 70600 78600 96600 163000 164000
2020-08-02 17:45 20.38 184000 165000 (2015) 65300 (2017) 116000 70600 78600 96600 163000 164000
2020-08-02 16:45 20.54 187000 165000 (2015) 65300 (2017) 116000 70600 78600 96600 163000 164000
2020-08-02 15:45 20.58 187000 165000 (2015) 65300 (2017) 116000 70600 78600 96600 163000 164000
2020-08-02 14:45 20.68 189000 165000 (2015) 65300 (2017) 116000 70600 78600 96600 163000 164000
2020-08-02 13:45 20.70 189000 165000 (2015) 65300 (2017) 116000 70600 78600 96600 163000 164000
2020-08-02 12:45 20.87 192000 165000 (2015) 65300 (2017) 116000 70600 78600 96600 163000 164000
2020-08-02 11:45 20.83 191000 165000 (2015) 65300 (2017) 116000 70600 78600 96600 163000 164000
2020-08-02 10:45 20.99 194000 165000 (2015) 65300 (2017) 116000 70600 78600 96600 163000 164000
2020-08-02 09:45 20.98 194000 165000 (2015) 65300 (2017) 116000 70600 78600 96600 163000 164000
2020-08-02 08:45 21.10 195000 165000 (2015) 65300 (2017) 116000 70600 78600 96600 163000 164000
2020-08-02 07:45 21.10 195000 165000 (2015) 65300 (2017) 116000 70600 78600 96600 163000 164000
2020-08-02 06:45 21.22 197000 165000 (2015) 65300 (2017) 116000 70600 78600 96600 163000 164000
2020-08-02 05:45 21.12 196000 165000 (2015) 65300 (2017) 116000 70600 78600 96600 163000 164000
2020-08-02 04:45 21.27 198000 165000 (2015) 65300 (2017) 116000 70600 78600 96600 163000 164000
2020-08-02 03:45 21.22 197000 165000 (2015) 65300 (2017) 116000 70600 78600 96600 163000 164000
2020-08-02 02:45 21.24 197000 165000 (2015) 65300 (2017) 116000 70600 78600 96600 163000 164000
2020-08-02 01:45 21.27 198000 165000 (2015) 65300 (2017) 116000 70600 78600 96600 163000 164000
2020-08-02 00:45 21.20 197000 165000 (2015) 65300 (2017) 116000 70600 78600 96600 163000 164000
2020-08-01 23:45 21.18 196000 168000 (2019) 67100 (2017) 114000 69600 73400 93400 165000 167000
2020-08-01 22:45 21.17 196000 168000 (2019) 67100 (2017) 114000 69600 73400 93400 165000 167000
2020-08-01 21:45 21.11 195000 168000 (2019) 67100 (2017) 114000 69600 73400 93400 165000 167000
2020-08-01 20:45 20.99 194000 168000 (2019) 67100 (2017) 114000 69600 73400 93400 165000 167000
2020-08-01 19:45 20.89 192000 168000 (2019) 67100 (2017) 114000 69600 73400 93400 165000 167000
2020-08-01 18:45 20.73 190000 168000 (2019) 67100 (2017) 114000 69600 73400 93400 165000 167000
2020-08-01 17:45 20.58 187000 168000 (2019) 67100 (2017) 114000 69600 73400 93400 165000 167000
2020-08-01 16:45 20.36 184000 168000 (2019) 67100 (2017) 114000 69600 73400 93400 165000 167000
2020-08-01 15:45 20.32 184000 168000 (2019) 67100 (2017) 114000 69600 73400 93400 165000 167000
2020-08-01 14:45 20.05 179000 168000 (2019) 67100 (2017) 114000 69600 73400 93400 165000 167000
2020-08-01 13:45 19.86 177000 168000 (2019) 67100 (2017) 114000 69600 73400 93400 165000 167000
2020-08-01 12:45 19.61 173000 168000 (2019) 67100 (2017) 114000 69600 73400 93400 165000 167000
2020-08-01 11:45 19.36 169000 168000 (2019) 67100 (2017) 114000 69600 73400 93400 165000 167000
2020-08-01 10:45 19.09 166000 168000 (2019) 67100 (2017) 114000 69600 73400 93400 165000 167000
2020-08-01 09:45 18.85 162000 168000 (2019) 67100 (2017) 114000 69600 73400 93400 165000 167000
2020-08-01 08:45 18.51 158000 168000 (2019) 67100 (2017) 114000 69600 73400 93400 165000 167000
2020-08-01 07:45 18.26 154000 168000 (2019) 67100 (2017) 114000 69600 73400 93400 165000 167000
2020-08-01 06:45 17.94 150000 168000 (2019) 67100 (2017) 114000 69600 73400 93400 165000 167000
2020-08-01 05:45 17.66 146000 168000 (2019) 67100 (2017) 114000 69600 73400 93400 165000 167000
2020-08-01 04:45 17.35 142000 168000 (2019) 67100 (2017) 114000 69600 73400 93400 165000 167000
2020-08-01 03:45 17.01 138000 168000 (2019) 67100 (2017) 114000 69600 73400 93400 165000 167000
2020-08-01 02:45 16.79 135000 168000 (2019) 67100 (2017) 114000 69600 73400 93400 165000 167000
2020-08-01 01:45 16.66 133000 168000 (2019) 67100 (2017) 114000 69600 73400 93400 165000 167000
2020-08-01 00:45 16.35 130000 168000 (2019) 67100 (2017) 114000 69600 73400 93400 165000 167000
2020-07-31 23:45 16.17 127000 173000 (2019) 58300 (2016) 108000 60800 64400 95300 158000 167000
2020-07-31 22:45 15.96 125000 173000 (2019) 58300 (2016) 108000 60800 64400 95300 158000 167000
2020-07-31 21:45 15.80 123000 173000 (2019) 58300 (2016) 108000 60800 64400 95300 158000 167000
2020-07-31 20:45 15.61 121000 173000 (2019) 58300 (2016) 108000 60800 64400 95300 158000 167000
2020-07-31 19:45 15.42 119000 173000 (2019) 58300 (2016) 108000 60800 64400 95300 158000 167000
2020-07-31 18:45 15.29 117000 173000 (2019) 58300 (2016) 108000 60800 64400 95300 158000 167000
2020-07-31 17:45 15.17 116000 173000 (2019) 58300 (2016) 108000 60800 64400 95300 158000 167000
2020-07-31 16:45 15.06 115000 173000 (2019) 58300 (2016) 108000 60800 64400 95300 158000 167000
2020-07-31 15:45 15.02 114000 173000 (2019) 58300 (2016) 108000 60800 64400 95300 158000 167000
2020-07-31 14:45 14.96 114000 173000 (2019) 58300 (2016) 108000 60800 64400 95300 158000 167000
2020-07-31 13:45 14.90 113000 173000 (2019) 58300 (2016) 108000 60800 64400 95300 158000 167000
2020-07-31 12:45 14.80 112000 173000 (2019) 58300 (2016) 108000 60800 64400 95300 158000 167000
2020-07-31 11:45 14.80 112000 173000 (2019) 58300 (2016) 108000 60800 64400 95300 158000 167000
2020-07-31 10:45 14.67 111000 173000 (2019) 58300 (2016) 108000 60800 64400 95300 158000 167000
2020-07-31 09:45 14.60 110000 173000 (2019) 58300 (2016) 108000 60800 64400 95300 158000 167000
2020-07-31 08:45 14.50 109000 173000 (2019) 58300 (2016) 108000 60800 64400 95300 158000 167000
2020-07-31 07:45 14.36 108000 173000 (2019) 58300 (2016) 108000 60800 64400 95300 158000 167000
2020-07-31 06:45 14.23 106000 173000 (2019) 58300 (2016) 108000 60800 64400 95300 158000 167000
2020-07-31 05:45 14.11 105000 173000 (2019) 58300 (2016) 108000 60800 64400 95300 158000 167000
2020-07-31 04:45 13.87 103000 173000 (2019) 58300 (2016) 108000 60800 64400 95300 158000 167000
2020-07-31 03:45 13.78 102000 173000 (2019) 58300 (2016) 108000 60800 64400 95300 158000 167000
2020-07-31 02:45 13.69 101000 173000 (2019) 58300 (2016) 108000 60800 64400 95300 158000 167000
2020-07-31 01:45 13.64 101000 173000 (2019) 58300 (2016) 108000 60800 64400 95300 158000 167000
2020-07-31 00:45 13.56 100000 173000 (2019) 58300 (2016) 108000 60800 64400 95300 158000 167000
2020-07-30 23:45 13.52 99900 180000 (2019) 59600 (2016) 111000 64600 72100 96600 157000 171000
2020-07-30 22:45 13.52 99900 180000 (2019) 59600 (2016) 111000 64600 72100 96600 157000 171000
2020-07-30 21:45 13.50 99700 180000 (2019) 59600 (2016) 111000 64600 72100 96600 157000 171000
2020-07-30 20:45 13.46 99300 180000 (2019) 59600 (2016) 111000 64600 72100 96600 157000 171000
2020-07-30 19:45 13.45 99200 180000 (2019) 59600 (2016) 111000 64600 72100 96600 157000 171000
2020-07-30 18:45 13.44 99100 180000 (2019) 59600 (2016) 111000 64600 72100 96600 157000 171000
2020-07-30 17:45 13.46 99300 180000 (2019) 59600 (2016) 111000 64600 72100 96600 157000 171000
2020-07-30 16:45 13.43 99000 180000 (2019) 59600 (2016) 111000 64600 72100 96600 157000 171000
2020-07-30 15:45 13.43 99000 180000 (2019) 59600 (2016) 111000 64600 72100 96600 157000 171000
2020-07-30 14:45 13.39 98600 180000 (2019) 59600 (2016) 111000 64600 72100 96600 157000 171000
2020-07-30 13:45 13.36 98500 180000 (2019) 59600 (2016) 111000 64600 72100 96600 157000 171000
2020-07-30 12:45 13.36 98500 180000 (2019) 59600 (2016) 111000 64600 72100 96600 157000 171000
2020-07-30 11:45 13.32 98100 180000 (2019) 59600 (2016) 111000 64600 72100 96600 157000 171000
2020-07-30 10:45 13.32 98100 180000 (2019) 59600 (2016) 111000 64600 72100 96600 157000 171000
2020-07-30 09:45 13.31 98000 180000 (2019) 59600 (2016) 111000 64600 72100 96600 157000 171000
2020-07-30 08:45 13.29 97800 180000 (2019) 59600 (2016) 111000 64600 72100 96600 157000 171000
2020-07-30 07:45 13.28 97700 180000 (2019) 59600 (2016) 111000 64600 72100 96600 157000 171000
2020-07-30 06:45 13.30 97900 180000 (2019) 59600 (2016) 111000 64600 72100 96600 157000 171000
2020-07-30 05:45 13.29 97800 180000 (2019) 59600 (2016) 111000 64600 72100 96600 157000 171000
2020-07-30 04:45 13.23 97300 180000 (2019) 59600 (2016) 111000 64600 72100 96600 157000 171000
2020-07-30 03:45 13.27 97600 180000 (2019) 59600 (2016) 111000 64600 72100 96600 157000 171000
2020-07-30 02:45 13.22 97200 180000 (2019) 59600 (2016) 111000 64600 72100 96600 157000 171000
2020-07-30 01:45 13.19 96900 180000 (2019) 59600 (2016) 111000 64600 72100 96600 157000 171000
2020-07-30 00:45 13.15 96500 180000 (2019) 59600 (2016) 111000 64600 72100 96600 157000 171000
2020-07-29 23:45 13.15 96500 178000 (2019) 61300 (2016) 116000 68400 79100 105000 158000 170000
2020-07-29 22:45 13.16 96600 178000 (2019) 61300 (2016) 116000 68400 79100 105000 158000 170000
2020-07-29 21:45 13.18 96800 178000 (2019) 61300 (2016) 116000 68400 79100 105000 158000 170000
2020-07-29 20:45 13.23 97300 178000 (2019) 61300 (2016) 116000 68400 79100 105000 158000 170000
2020-07-29 19:45 13.20 97000 178000 (2019) 61300 (2016) 116000 68400 79100 105000 158000 170000
2020-07-29 18:45 13.23 97300 178000 (2019) 61300 (2016) 116000 68400 79100 105000 158000 170000
2020-07-29 17:45 13.20 97000 178000 (2019) 61300 (2016) 116000 68400 79100 105000 158000 170000
2020-07-29 16:45 13.20 97000 178000 (2019) 61300 (2016) 116000 68400 79100 105000 158000 170000
2020-07-29 15:45 13.11 96300 178000 (2019) 61300 (2016) 116000 68400 79100 105000 158000 170000
2020-07-29 14:45 13.06 95800 178000 (2019) 61300 (2016) 116000 68400 79100 105000 158000 170000
2020-07-29 13:45 13.04 95600 178000 (2019) 61300 (2016) 116000 68400 79100 105000 158000 170000
2020-07-29 12:45 13.01 95400 178000 (2019) 61300 (2016) 116000 68400 79100 105000 158000 170000
2020-07-29 11:45 13.01 95400 178000 (2019) 61300 (2016) 116000 68400 79100 105000 158000 170000
2020-07-29 10:45 12.94 94700 178000 (2019) 61300 (2016) 116000 68400 79100 105000 158000 170000
2020-07-29 09:45 12.89 94300 178000 (2019) 61300 (2016) 116000 68400 79100 105000 158000 170000
2020-07-29 08:45 12.87 94100 178000 (2019) 61300 (2016) 116000 68400 79100 105000 158000 170000
2020-07-29 07:45 12.80 93500 178000 (2019) 61300 (2016) 116000 68400 79100 105000 158000 170000
2020-07-29 06:45 12.73 93000 178000 (2019) 61300 (2016) 116000 68400 79100 105000 158000 170000
2020-07-29 05:45 12.68 92500 178000 (2019) 61300 (2016) 116000 68400 79100 105000 158000 170000
2020-07-29 04:45 12.61 91900 178000 (2019) 61300 (2016) 116000 68400 79100 105000 158000 170000
2020-07-29 03:45 12.51 91100 178000 (2019) 61300 (2016) 116000 68400 79100 105000 158000 170000
2020-07-29 02:45 12.41 90300 178000 (2019) 61300 (2016) 116000 68400 79100 105000 158000 170000
2020-07-29 01:45 12.32 89500 178000 (2019) 61300 (2016) 116000 68400 79100 105000 158000 170000
2020-07-29 00:45 12.22 88700 178000 (2019) 61300 (2016) 116000 68400 79100 105000 158000 170000
2020-07-28 23:45 12.09 87600 179000 (2019) 64200 (2016) 107000 64600 65100 98100 154000 169000
2020-07-28 22:45 12.02 87100 179000 (2019) 64200 (2016) 107000 64600 65100 98100 154000 169000
2020-07-28 21:45 11.92 86300 179000 (2019) 64200 (2016) 107000 64600 65100 98100 154000 169000
2020-07-28 20:45 11.79 85200 179000 (2019) 64200 (2016) 107000 64600 65100 98100 154000 169000
2020-07-28 19:45 11.72 84700 179000 (2019) 64200 (2016) 107000 64600 65100 98100 154000 169000
2020-07-28 18:45 11.63 84000 179000 (2019) 64200 (2016) 107000 64600 65100 98100 154000 169000
2020-07-28 17:45 11.56 83400 179000 (2019) 64200 (2016) 107000 64600 65100 98100 154000 169000
2020-07-28 16:45 11.50 83000 179000 (2019) 64200 (2016) 107000 64600 65100 98100 154000 169000
2020-07-28 15:45 11.44 82500 179000 (2019) 64200 (2016) 107000 64600 65100 98100 154000 169000
2020-07-28 14:45 11.37 82000 179000 (2019) 64200 (2016) 107000 64600 65100 98100 154000 169000
2020-07-28 13:45 11.32 81600 179000 (2019) 64200 (2016) 107000 64600 65100 98100 154000 169000
2020-07-28 12:45 11.24 81000 179000 (2019) 64200 (2016) 107000 64600 65100 98100 154000 169000
2020-07-28 11:45 11.22 80800 179000 (2019) 64200 (2016) 107000 64600 65100 98100 154000 169000
2020-07-28 10:45 11.20 80700 179000 (2019) 64200 (2016) 107000 64600 65100 98100 154000 169000
2020-07-28 09:45 11.17 80400 179000 (2019) 64200 (2016) 107000 64600 65100 98100 154000 169000
2020-07-28 08:45 11.15 80300 179000 (2019) 64200 (2016) 107000 64600 65100 98100 154000 169000
2020-07-28 07:45 11.12 80100 179000 (2019) 64200 (2016) 107000 64600 65100 98100 154000 169000
2020-07-28 06:45 11.09 79800 179000 (2019) 64200 (2016) 107000 64600 65100 98100 154000 169000
2020-07-28 05:45 11.08 79800 179000 (2019) 64200 (2016) 107000 64600 65100 98100 154000 169000
2020-07-28 04:45 11.07 79700 179000 (2019) 64200 (2016) 107000 64600 65100 98100 154000 169000
2020-07-28 03:45 11.09 79800 179000 (2019) 64200 (2016) 107000 64600 65100 98100 154000 169000
2020-07-28 02:45 11.06 79600 179000 (2019) 64200 (2016) 107000 64600 65100 98100 154000 169000
2020-07-28 01:45 11.07 79700 179000 (2019) 64200 (2016) 107000 64600 65100 98100 154000 169000
2020-07-28 00:45 11.07 79700 179000 (2019) 64200 (2016) 107000 64600 65100 98100 154000 169000
2020-07-27 23:45 11.07 79700 183000 (2019) 55500 (2017) 106000 57900 61500 99600 154000 171000
2020-07-27 22:45 11.08 79800 183000 (2019) 55500 (2017) 106000 57900 61500 99600 154000 171000
2020-07-27 21:45 11.07 79700 183000 (2019) 55500 (2017) 106000 57900 61500 99600 154000 171000
2020-07-27 20:45 11.08 79800 183000 (2019) 55500 (2017) 106000 57900 61500 99600 154000 171000
2020-07-27 19:45 11.08 79800 183000 (2019) 55500 (2017) 106000 57900 61500 99600 154000 171000
2020-07-27 18:45 11.08 79800 183000 (2019) 55500 (2017) 106000 57900 61500 99600 154000 171000
2020-07-27 17:45 11.07 79700 183000 (2019) 55500 (2017) 106000 57900 61500 99600 154000 171000
2020-07-27 16:45 11.08 79800 183000 (2019) 55500 (2017) 106000 57900 61500 99600 154000 171000
2020-07-27 15:45 11.11 80000 183000 (2019) 55500 (2017) 106000 57900 61500 99600 154000 171000
2020-07-27 14:45 11.12 80100 183000 (2019) 55500 (2017) 106000 57900 61500 99600 154000 171000
2020-07-27 13:45 11.11 80000 183000 (2019) 55500 (2017) 106000 57900 61500 99600 154000 171000
2020-07-27 12:45 11.14 80200 183000 (2019) 55500 (2017) 106000 57900 61500 99600 154000 171000
2020-07-27 11:45 11.13 80100 183000 (2019) 55500 (2017) 106000 57900 61500 99600 154000 171000
2020-07-27 10:45 11.12 80100 183000 (2019) 55500 (2017) 106000 57900 61500 99600 154000 171000
2020-07-27 09:45 11.15 80300 183000 (2019) 55500 (2017) 106000 57900 61500 99600 154000 171000
2020-07-27 08:45 11.16 80400 183000 (2019) 55500 (2017) 106000 57900 61500 99600 154000 171000
2020-07-27 07:45 11.18 80500 183000 (2019) 55500 (2017) 106000 57900 61500 99600 154000 171000
2020-07-27 06:45 11.19 80600 183000 (2019) 55500 (2017) 106000 57900 61500 99600 154000 171000
2020-07-27 05:45 11.20 80700 183000 (2019) 55500 (2017) 106000 57900 61500 99600 154000 171000
2020-07-27 04:45 11.21 80800 183000 (2019) 55500 (2017) 106000 57900 61500 99600 154000 171000
2020-07-27 03:45 11.22 80800 183000 (2019) 55500 (2017) 106000 57900 61500 99600 154000 171000
2020-07-27 02:45 11.24 81000 183000 (2019) 55500 (2017) 106000 57900 61500 99600 154000 171000
2020-07-27 01:45 11.26 81100 183000 (2019) 55500 (2017) 106000 57900 61500 99600 154000 171000
2020-07-27 00:45 11.26 81100 183000 (2019) 55500 (2017) 106000 57900 61500 99600 154000 171000
2020-07-26 23:45 11.31 81500 189000 (2019) 58200 (2017) 110000 60500 63900 101000 160000 177000
2020-07-26 22:45 11.32 81600 189000 (2019) 58200 (2017) 110000 60500 63900 101000 160000 177000
2020-07-26 21:45 11.32 81600 189000 (2019) 58200 (2017) 110000 60500 63900 101000 160000 177000
2020-07-26 20:45 11.33 81700 189000 (2019) 58200 (2017) 110000 60500 63900 101000 160000 177000
2020-07-26 19:45 11.35 81800 189000 (2019) 58200 (2017) 110000 60500 63900 101000 160000 177000
2020-07-26 18:45 11.37 82000 189000 (2019) 58200 (2017) 110000 60500 63900 101000 160000 177000
2020-07-26 17:45 11.41 82300 189000 (2019) 58200 (2017) 110000 60500 63900 101000 160000 177000
2020-07-26 16:45 11.41 82300 189000 (2019) 58200 (2017) 110000 60500 63900 101000 160000 177000
2020-07-26 15:45 11.45 82600 189000 (2019) 58200 (2017) 110000 60500 63900 101000 160000 177000
2020-07-26 14:45 11.47 82700 189000 (2019) 58200 (2017) 110000 60500 63900 101000 160000 177000
2020-07-26 13:45 11.49 82900 189000 (2019) 58200 (2017) 110000 60500 63900 101000 160000 177000
2020-07-26 12:45 11.54 83300 189000 (2019) 58200 (2017) 110000 60500 63900 101000 160000 177000
2020-07-26 11:45 11.53 83200 189000 (2019) 58200 (2017) 110000 60500 63900 101000 160000 177000
2020-07-26 10:45 11.57 83500 189000 (2019) 58200 (2017) 110000 60500 63900 101000 160000 177000
2020-07-26 09:45 11.59 83700 189000 (2019) 58200 (2017) 110000 60500 63900 101000 160000 177000
2020-07-26 08:45 11.64 84100 189000 (2019) 58200 (2017) 110000 60500 63900 101000 160000 177000
2020-07-26 07:45 11.66 84200 189000 (2019) 58200 (2017) 110000 60500 63900 101000 160000 177000
2020-07-26 06:45 11.69 84500 189000 (2019) 58200 (2017) 110000 60500 63900 101000 160000 177000
2020-07-26 05:45 11.73 84800 189000 (2019) 58200 (2017) 110000 60500 63900 101000 160000 177000
2020-07-26 04:45 11.76 85000 189000 (2019) 58200 (2017) 110000 60500 63900 101000 160000 177000
2020-07-26 03:45 11.78 85200 189000 (2019) 58200 (2017) 110000 60500 63900 101000 160000 177000
2020-07-26 02:45 11.84 85600 189000 (2019) 58200 (2017) 110000 60500 63900 101000 160000 177000
2020-07-26 01:45 11.87 85900 189000 (2019) 58200 (2017) 110000 60500 63900 101000 160000 177000
2020-07-26 00:45 11.93 86400 189000 (2019) 58200 (2017) 110000 60500 63900 101000 160000 177000
2020-07-25 23:45 11.98 86800 195000 (2019) 61500 (2017) 112000 64200 68200 102000 160000 181000
2020-07-25 22:45 12.02 87100 195000 (2019) 61500 (2017) 112000 64200 68200 102000 160000 181000
2020-07-25 21:45 12.06 87400 195000 (2019) 61500 (2017) 112000 64200 68200 102000 160000 181000
2020-07-25 20:45 12.09 87600 195000 (2019) 61500 (2017) 112000 64200 68200 102000 160000 181000
2020-07-25 19:45 12.15 88100 195000 (2019) 61500 (2017) 112000 64200 68200 102000 160000 181000
2020-07-25 18:45 12.19 88500 195000 (2019) 61500 (2017) 112000 64200 68200 102000 160000 181000
2020-07-25 17:45 12.25 88900 195000 (2019) 61500 (2017) 112000 64200 68200 102000 160000 181000
2020-07-25 16:45 12.26 89000 195000 (2019) 61500 (2017) 112000 64200 68200 102000 160000 181000
2020-07-25 15:45 12.33 89600 195000 (2019) 61500 (2017) 112000 64200 68200 102000 160000 181000
2020-07-25 14:45 12.37 89900 195000 (2019) 61500 (2017) 112000 64200 68200 102000 160000 181000
2020-07-25 13:45 12.41 90300 195000 (2019) 61500 (2017) 112000 64200 68200 102000 160000 181000
2020-07-25 12:45 12.47 90800 195000 (2019) 61500 (2017) 112000 64200 68200 102000 160000 181000
2020-07-25 11:45 12.54 91400 195000 (2019) 61500 (2017) 112000 64200 68200 102000 160000 181000
2020-07-25 10:45 12.60 91900 195000 (2019) 61500 (2017) 112000 64200 68200 102000 160000 181000
2020-07-25 09:45 12.65 92300 195000 (2019) 61500 (2017) 112000 64200 68200 102000 160000 181000
2020-07-25 08:45 12.70 92700 195000 (2019) 61500 (2017) 112000 64200 68200 102000 160000 181000
2020-07-25 07:45 12.78 93400 195000 (2019) 61500 (2017) 112000 64200 68200 102000 160000 181000
2020-07-25 06:45 12.85 94000 195000 (2019) 61500 (2017) 112000 64200 68200 102000 160000 181000
2020-07-25 05:45 12.93 94700 195000 (2019) 61500 (2017) 112000 64200 68200 102000 160000 181000
2020-07-25 04:45 12.98 95100 195000 (2019) 61500 (2017) 112000 64200 68200 102000 160000 181000
2020-07-25 03:45 13.03 95500 195000 (2019) 61500 (2017) 112000 64200 68200 102000 160000 181000
2020-07-25 02:45 13.14 96400 195000 (2019) 61500 (2017) 112000 64200 68200 102000 160000 181000
2020-07-25 01:45 13.20 97000 195000 (2019) 61500 (2017) 112000 64200 68200 102000 160000 181000
2020-07-25 00:45 13.26 97500 195000 (2019) 61500 (2017) 112000 64200 68200 102000 160000 181000
2020-07-24 23:45 13.34 98300 199000 (2019) 63800 (2017) 121000 67600 73300 103000 176000 190000
2020-07-24 22:45 13.43 99000 199000 (2019) 63800 (2017) 121000 67600 73300 103000 176000 190000
2020-07-24 21:45 13.48 99500 199000 (2019) 63800 (2017) 121000 67600 73300 103000 176000 190000
2020-07-24 20:45 13.55 100000 199000 (2019) 63800 (2017) 121000 67600 73300 103000 176000 190000
2020-07-24 19:45 13.66 101000 199000 (2019) 63800 (2017) 121000 67600 73300 103000 176000 190000
2020-07-24 18:45 13.73 102000 199000 (2019) 63800 (2017) 121000 67600 73300 103000 176000 190000
2020-07-24 17:45 13.81 102000 199000 (2019) 63800 (2017) 121000 67600 73300 103000 176000 190000
2020-07-24 16:45 13.90 103000 199000 (2019) 63800 (2017) 121000 67600 73300 103000 176000 190000
2020-07-24 15:45 13.92 103000 199000 (2019) 63800 (2017) 121000 67600 73300 103000 176000 190000
2020-07-24 14:45 14.02 104000 199000 (2019) 63800 (2017) 121000 67600 73300 103000 176000 190000
2020-07-24 13:45 14.07 105000 199000 (2019) 63800 (2017) 121000 67600 73300 103000 176000 190000
2020-07-24 12:45 14.16 103000 199000 (2019) 63800 (2017) 121000 67600 73300 103000 176000 190000
2020-07-24 11:45 14.23 104000 199000 (2019) 63800 (2017) 121000 67600 73300 103000 176000 190000
2020-07-24 10:45 14.30 104000 199000 (2019) 63800 (2017) 121000 67600 73300 103000 176000 190000
2020-07-24 09:45 14.40 105000 199000 (2019) 63800 (2017) 121000 67600 73300 103000 176000 190000
2020-07-24 08:45 14.51 106000 199000 (2019) 63800 (2017) 121000 67600 73300 103000 176000 190000
2020-07-24 07:45 14.55 107000 199000 (2019) 63800 (2017) 121000 67600 73300 103000 176000 190000
2020-07-24 06:45 14.66 108000 199000 (2019) 63800 (2017) 121000 67600 73300 103000 176000 190000
2020-07-24 05:45 14.67 108000 199000 (2019) 63800 (2017) 121000 67600 73300 103000 176000 190000
2020-07-24 04:45 14.79 109000 199000 (2019) 63800 (2017) 121000 67600 73300 103000 176000 190000
2020-07-24 03:45 14.87 110000 199000 (2019) 63800 (2017) 121000 67600 73300 103000 176000 190000
2020-07-24 02:45 14.96 110000 199000 (2019) 63800 (2017) 121000 67600 73300 103000 176000 190000
2020-07-24 01:45 15.05 111000 199000 (2019) 63800 (2017) 121000 67600 73300 103000 176000 190000
2020-07-24 00:45 15.10 112000 199000 (2019) 63800 (2017) 121000 67600 73300 103000 176000 190000
2020-07-23 23:45 15.13 112000 196000 (2019) 61100 (2017) 130000 68500 79600 104000 193000 195000
2020-07-23 22:45 15.25 114000 196000 (2019) 61100 (2017) 130000 68500 79600 104000 193000 195000
2020-07-23 21:45 15.24 113000 196000 (2019) 61100 (2017) 130000 68500 79600 104000 193000 195000
2020-07-23 20:45 15.32 114000 196000 (2019) 61100 (2017) 130000 68500 79600 104000 193000 195000
2020-07-23 19:45 15.35 115000 196000 (2019) 61100 (2017) 130000 68500 79600 104000 193000 195000
2020-07-23 18:45 15.42 115000 196000 (2019) 61100 (2017) 130000 68500 79600 104000 193000 195000
2020-07-23 17:45 15.44 116000 196000 (2019) 61100 (2017) 130000 68500 79600 104000 193000 195000
2020-07-23 16:45 15.44 116000 196000 (2019) 61100 (2017) 130000 68500 79600 104000 193000 195000
2020-07-23 15:45 15.38 115000 196000 (2019) 61100 (2017) 130000 68500 79600 104000 193000 195000
2020-07-23 14:45 15.46 116000 196000 (2019) 61100 (2017) 130000 68500 79600 104000 193000 195000
2020-07-23 13:45 15.48 116000 196000 (2019) 61100 (2017) 130000 68500 79600 104000 193000 195000
2020-07-23 12:45 15.45 116000 196000 (2019) 61100 (2017) 130000 68500 79600 104000 193000 195000
2020-07-23 11:45 15.44 116000 196000 (2019) 61100 (2017) 130000 68500 79600 104000 193000 195000
2020-07-23 10:45 15.30 114000 196000 (2019) 61100 (2017) 130000 68500 79600 104000 193000 195000
2020-07-23 09:45 15.29 114000 196000 (2019) 61100 (2017) 130000 68500 79600 104000 193000 195000
2020-07-23 08:45 15.28 114000 196000 (2019) 61100 (2017) 130000 68500 79600 104000 193000 195000
2020-07-23 07:45 15.21 113000 196000 (2019) 61100 (2017) 130000 68500 79600 104000 193000 195000
2020-07-23 06:45 15.13 112000 196000 (2019) 61100 (2017) 130000 68500 79600 104000 193000 195000
2020-07-23 05:45 15.03 111000 196000 (2019) 61100 (2017) 130000 68500 79600 104000 193000 195000
2020-07-23 04:45 14.96 110000 196000 (2019) 61100 (2017) 130000 68500 79600 104000 193000 195000
2020-07-23 03:45 14.86 110000 196000 (2019) 61100 (2017) 130000 68500 79600 104000 193000 195000
2020-07-23 02:45 14.72 108000 196000 (2019) 61100 (2017) 130000 68500 79600 104000 193000 195000
2020-07-23 01:45 14.59 107000 196000 (2019) 61100 (2017) 130000 68500 79600 104000 193000 195000
2020-07-23 00:45 14.44 106000 196000 (2019) 61100 (2017) 130000 68500 79600 104000 193000 195000
2020-07-22 23:45 14.26 104000 211000 (2015) 59500 (2017) 134000 68400 81800 106000 199000 206000
2020-07-22 22:45 14.12 103000 211000 (2015) 59500 (2017) 134000 68400 81800 106000 199000 206000
2020-07-22 21:45 13.97 101000 211000 (2015) 59500 (2017) 134000 68400 81800 106000 199000 206000
2020-07-22 20:45 13.79 99600 211000 (2015) 59500 (2017) 134000 68400 81800 106000 199000 206000
2020-07-22 19:45 13.65 98300 211000 (2015) 59500 (2017) 134000 68400 81800 106000 199000 206000
2020-07-22 18:45 13.47 96700 211000 (2015) 59500 (2017) 134000 68400 81800 106000 199000 206000
2020-07-22 17:45 13.32 95500 211000 (2015) 59500 (2017) 134000 68400 81800 106000 199000 206000
2020-07-22 16:45 13.19 94300 211000 (2015) 59500 (2017) 134000 68400 81800 106000 199000 206000
2020-07-22 15:45 13.03 93000 211000 (2015) 59500 (2017) 134000 68400 81800 106000 199000 206000
2020-07-22 14:45 12.89 91800 211000 (2015) 59500 (2017) 134000 68400 81800 106000 199000 206000
2020-07-22 13:45 12.76 90700 211000 (2015) 59500 (2017) 134000 68400 81800 106000 199000 206000
2020-07-22 12:45 12.67 89900 211000 (2015) 59500 (2017) 134000 68400 81800 106000 199000 206000
2020-07-22 11:45 12.50 88500 211000 (2015) 59500 (2017) 134000 68400 81800 106000 199000 206000
2020-07-22 10:45 12.44 88100 211000 (2015) 59500 (2017) 134000 68400 81800 106000 199000 206000
2020-07-22 09:45 12.36 87400 211000 (2015) 59500 (2017) 134000 68400 81800 106000 199000 206000
2020-07-22 08:45 12.27 86700 211000 (2015) 59500 (2017) 134000 68400 81800 106000 199000 206000
2020-07-22 07:45 12.22 86300 211000 (2015) 59500 (2017) 134000 68400 81800 106000 199000 206000
2020-07-22 06:45 12.16 85800 211000 (2015) 59500 (2017) 134000 68400 81800 106000 199000 206000
2020-07-22 05:45 12.10 85300 211000 (2015) 59500 (2017) 134000 68400 81800 106000 199000 206000
2020-07-22 04:45 12.01 84600 211000 (2015) 59500 (2017) 134000 68400 81800 106000 199000 206000
2020-07-22 03:45 11.97 84300 211000 (2015) 59500 (2017) 134000 68400 81800 106000 199000 206000
2020-07-22 02:45 11.91 83800 211000 (2015) 59500 (2017) 134000 68400 81800 106000 199000 206000
2020-07-22 01:45 11.85 83400 211000 (2015) 59500 (2017) 134000 68400 81800 106000 199000 206000
2020-07-22 00:45 11.81 83100 211000 (2015) 59500 (2017) 134000 68400 81800 106000 199000 206000
2020-07-21 23:45 11.77 82700 213000 (2015) 61000 (2017) 127000 63700 67700 108000 197000 207000
2020-07-21 22:45 11.73 82400 213000 (2015) 61000 (2017) 127000 63700 67700 108000 197000 207000
2020-07-21 21:45 11.66 81900 213000 (2015) 61000 (2017) 127000 63700 67700 108000 197000 207000
2020-07-21 20:45 11.65 81800 213000 (2015) 61000 (2017) 127000 63700 67700 108000 197000 207000
2020-07-21 19:45 11.59 81400 213000 (2015) 61000 (2017) 127000 63700 67700 108000 197000 207000
2020-07-21 18:45 11.54 81000 213000 (2015) 61000 (2017) 127000 63700 67700 108000 197000 207000
2020-07-21 17:45 11.53 80900 213000 (2015) 61000 (2017) 127000 63700 67700 108000 197000 207000
2020-07-21 16:45 11.49 80600 213000 (2015) 61000 (2017) 127000 63700 67700 108000 197000 207000
2020-07-21 15:45 11.48 80500 213000 (2015) 61000 (2017) 127000 63700 67700 108000 197000 207000
2020-07-21 14:45 11.44 80200 213000 (2015) 61000 (2017) 127000 63700 67700 108000 197000 207000
2020-07-21 13:45 11.44 80200 213000 (2015) 61000 (2017) 127000 63700 67700 108000 197000 207000
2020-07-21 12:45 11.41 80000 213000 (2015) 61000 (2017) 127000 63700 67700 108000 197000 207000
2020-07-21 11:45 11.43 80100 213000 (2015) 61000 (2017) 127000 63700 67700 108000 197000 207000
2020-07-21 10:45 11.41 80000 213000 (2015) 61000 (2017) 127000 63700 67700 108000 197000 207000
2020-07-21 09:45 11.41 80000 213000 (2015) 61000 (2017) 127000 63700 67700 108000 197000 207000
2020-07-21 08:45 11.40 79900 213000 (2015) 61000 (2017) 127000 63700 67700 108000 197000 207000
2020-07-21 07:45 11.45 80300 213000 (2015) 61000 (2017) 127000 63700 67700 108000 197000 207000
2020-07-21 06:45 11.43 80100 213000 (2015) 61000 (2017) 127000 63700 67700 108000 197000 207000
2020-07-21 05:45 11.48 80500 213000 (2015) 61000 (2017) 127000 63700 67700 108000 197000 207000
2020-07-21 04:45 11.41 80000 213000 (2015) 61000 (2017) 127000 63700 67700 108000 197000 207000
2020-07-21 03:45 11.45 80300 213000 (2015) 61000 (2017) 127000 63700 67700 108000 197000 207000
2020-07-21 02:45 11.45 80300 213000 (2015) 61000 (2017) 127000 63700 67700 108000 197000 207000
2020-07-21 01:45 11.47 80400 213000 (2015) 61000 (2017) 127000 63700 67700 108000 197000 207000
2020-07-21 00:45 11.42 80100 213000 (2015) 61000 (2017) 127000 63700 67700 108000 197000 207000
2020-07-20 23:45 11.43 80100 200000 (2015) 63800 (2017) 125000 65100 67100 108000 191000 196000
2020-07-20 22:45 11.50 80700 200000 (2015) 63800 (2017) 125000 65100 67100 108000 191000 196000
2020-07-20 21:45 11.49 80600 200000 (2015) 63800 (2017) 125000 65100 67100 108000 191000 196000
2020-07-20 20:45 11.52 80800 200000 (2015) 63800 (2017) 125000 65100 67100 108000 191000 196000
2020-07-20 19:45 11.54 81000 200000 (2015) 63800 (2017) 125000 65100 67100 108000 191000 196000
2020-07-20 18:45 11.55 81100 200000 (2015) 63800 (2017) 125000 65100 67100 108000 191000 196000
2020-07-20 17:45 11.58 81300 200000 (2015) 63800 (2017) 125000 65100 67100 108000 191000 196000
2020-07-20 16:45 11.64 81700 200000 (2015) 63800 (2017) 125000 65100 67100 108000 191000 196000
2020-07-20 15:45 11.67 82000 200000 (2015) 63800 (2017) 125000 65100 67100 108000 191000 196000
2020-07-20 14:45 11.72 82400 200000 (2015) 63800 (2017) 125000 65100 67100 108000 191000 196000
2020-07-20 13:45 11.73 82400 200000 (2015) 63800 (2017) 125000 65100 67100 108000 191000 196000
2020-07-20 12:45 11.80 83000 200000 (2015) 63800 (2017) 125000 65100 67100 108000 191000 196000
2020-07-20 11:45 11.91 83800 200000 (2015) 63800 (2017) 125000 65100 67100 108000 191000 196000
2020-07-20 10:45 11.93 84000 200000 (2015) 63800 (2017) 125000 65100 67100 108000 191000 196000
2020-07-20 09:45 11.99 84500 200000 (2015) 63800 (2017) 125000 65100 67100 108000 191000 196000
2020-07-20 08:45 12.08 85200 200000 (2015) 63800 (2017) 125000 65100 67100 108000 191000 196000
2020-07-20 07:45 12.13 85600 200000 (2015) 63800 (2017) 125000 65100 67100 108000 191000 196000
2020-07-20 06:45 12.23 86400 200000 (2015) 63800 (2017) 125000 65100 67100 108000 191000 196000
2020-07-20 05:45 12.32 87100 200000 (2015) 63800 (2017) 125000 65100 67100 108000 191000 196000
2020-07-20 04:45 12.38 87600 200000 (2015) 63800 (2017) 125000 65100 67100 108000 191000 196000
2020-07-20 03:45 12.46 88200 200000 (2015) 63800 (2017) 125000 65100 67100 108000 191000 196000
2020-07-20 02:45 12.54 88900 200000 (2015) 63800 (2017) 125000 65100 67100 108000 191000 196000
2020-07-20 01:45 12.61 89400 200000 (2015) 63800 (2017) 125000 65100 67100 108000 191000 196000
2020-07-20 00:45 12.71 90300 200000 (2015) 63800 (2017) 125000 65100 67100 108000 191000 196000
2020-07-19 23:45 12.81 91100 182000 (2019) 70000 (2017) 119000 70600 71600 103000 174000 179000
2020-07-19 22:45 12.94 92200 182000 (2019) 70000 (2017) 119000 70600 71600 103000 174000 179000
2020-07-19 21:45 13.02 92900 182000 (2019) 70000 (2017) 119000 70600 71600 103000 174000 179000
2020-07-19 20:45 13.20 94400 182000 (2019) 70000 (2017) 119000 70600 71600 103000 174000 179000
2020-07-19 19:45 13.41 96200 182000 (2019) 70000 (2017) 119000 70600 71600 103000 174000 179000
2020-07-19 18:45 13.43 96400 182000 (2019) 70000 (2017) 119000 70600 71600 103000 174000 179000
2020-07-19 17:45 13.17 94100 182000 (2019) 70000 (2017) 119000 70600 71600 103000 174000 179000
2020-07-19 16:45 13.10 93600 182000 (2019) 70000 (2017) 119000 70600 71600 103000 174000 179000
2020-07-19 15:45 13.16 94000 182000 (2019) 70000 (2017) 119000 70600 71600 103000 174000 179000
2020-07-19 14:45 13.29 95200 182000 (2019) 70000 (2017) 119000 70600 71600 103000 174000 179000
2020-07-19 13:45 13.37 95900 182000 (2019) 70000 (2017) 119000 70600 71600 103000 174000 179000
2020-07-19 12:45 13.49 96900 182000 (2019) 70000 (2017) 119000 70600 71600 103000 174000 179000
2020-07-19 11:45 13.55 97500 182000 (2019) 70000 (2017) 119000 70600 71600 103000 174000 179000
2020-07-19 10:45 13.64 98200 182000 (2019) 70000 (2017) 119000 70600 71600 103000 174000 179000
2020-07-19 09:45 13.72 98900 182000 (2019) 70000 (2017) 119000 70600 71600 103000 174000 179000
2020-07-19 08:45 13.84 100000 182000 (2019) 70000 (2017) 119000 70600 71600 103000 174000 179000
2020-07-19 07:45 13.92 101000 182000 (2019) 70000 (2017) 119000 70600 71600 103000 174000 179000
2020-07-19 06:45 13.99 101000 182000 (2019) 70000 (2017) 119000 70600 71600 103000 174000 179000
2020-07-19 05:45 14.07 102000 182000 (2019) 70000 (2017) 119000 70600 71600 103000 174000 179000
2020-07-19 04:45 14.17 103000 182000 (2019) 70000 (2017) 119000 70600 71600 103000 174000 179000
2020-07-19 03:45 14.27 104000 182000 (2019) 70000 (2017) 119000 70600 71600 103000 174000 179000
2020-07-19 02:45 14.34 105000 182000 (2019) 70000 (2017) 119000 70600 71600 103000 174000 179000
2020-07-19 01:45 14.45 106000 182000 (2019) 70000 (2017) 119000 70600 71600 103000 174000 179000
2020-07-19 00:45 14.46 106000 182000 (2019) 70000 (2017) 119000 70600 71600 103000 174000 179000
2020-07-18 23:45 14.59 107000 183000 (2019) 78000 (2016) 111000 78100 78300 100000 150000 170000
2020-07-18 22:45 14.68 108000 183000 (2019) 78000 (2016) 111000 78100 78300 100000 150000 170000
2020-07-18 21:45 14.71 108000 183000 (2019) 78000 (2016) 111000 78100 78300 100000 150000 170000
2020-07-18 20:45 14.77 109000 183000 (2019) 78000 (2016) 111000 78100 78300 100000 150000 170000
2020-07-18 19:45 14.86 110000 183000 (2019) 78000 (2016) 111000 78100 78300 100000 150000 170000
2020-07-18 18:45 14.90 110000 183000 (2019) 78000 (2016) 111000 78100 78300 100000 150000 170000
2020-07-18 17:45 14.95 110000 183000 (2019) 78000 (2016) 111000 78100 78300 100000 150000 170000
2020-07-18 16:45 15.00 111000 183000 (2019) 78000 (2016) 111000 78100 78300 100000 150000 170000
2020-07-18 15:45 15.04 111000 183000 (2019) 78000 (2016) 111000 78100 78300 100000 150000 170000
2020-07-18 14:45 15.03 111000 183000 (2019) 78000 (2016) 111000 78100 78300 100000 150000 170000
2020-07-18 13:45 15.03 111000 183000 (2019) 78000 (2016) 111000 78100 78300 100000 150000 170000
2020-07-18 12:45 15.06 112000 183000 (2019) 78000 (2016) 111000 78100 78300 100000 150000 170000
2020-07-18 11:45 15.15 112000 183000 (2019) 78000 (2016) 111000 78100 78300 100000 150000 170000
2020-07-18 10:45 15.11 112000 183000 (2019) 78000 (2016) 111000 78100 78300 100000 150000 170000
2020-07-18 09:45 15.15 112000 183000 (2019) 78000 (2016) 111000 78100 78300 100000 150000 170000
2020-07-18 08:45 15.12 112000 183000 (2019) 78000 (2016) 111000 78100 78300 100000 150000 170000
2020-07-18 07:45 15.13 112000 183000 (2019) 78000 (2016) 111000 78100 78300 100000 150000 170000
2020-07-18 06:45 15.12 112000 183000 (2019) 78000 (2016) 111000 78100 78300 100000 150000 170000
2020-07-18 05:45 15.12 112000 183000 (2019) 78000 (2016) 111000 78100 78300 100000 150000 170000
2020-07-18 04:45 15.13 112000 183000 (2019) 78000 (2016) 111000 78100 78300 100000 150000 170000
2020-07-18 03:45 15.08 112000 183000 (2019) 78000 (2016) 111000 78100 78300 100000 150000 170000
2020-07-18 02:45 15.03 111000 183000 (2019) 78000 (2016) 111000 78100 78300 100000 150000 170000
2020-07-18 01:45 15.03 111000 183000 (2019) 78000 (2016) 111000 78100 78300 100000 150000 170000
2020-07-18 00:45 14.98 111000 183000 (2019) 78000 (2016) 111000 78100 78300 100000 150000 170000
2020-07-17 23:45 14.91 110000 186000 (2019) 88500 (2016) 114000 88900 89600 102000 145000 170000
2020-07-17 22:45 14.87 110000 186000 (2019) 88500 (2016) 114000 88900 89600 102000 145000 170000
2020-07-17 21:45 14.83 109000 186000 (2019) 88500 (2016) 114000 88900 89600 102000 145000 170000
2020-07-17 20:45 14.75 108000 186000 (2019) 88500 (2016) 114000 88900 89600 102000 145000 170000
2020-07-17 19:45 14.69 108000 186000 (2019) 88500 (2016) 114000 88900 89600 102000 145000 170000
2020-07-17 18:45 14.58 107000 186000 (2019) 88500 (2016) 114000 88900 89600 102000 145000 170000
2020-07-17 17:45 14.48 106000 186000 (2019) 88500 (2016) 114000 88900 89600 102000 145000 170000
2020-07-17 16:45 14.41 105000 186000 (2019) 88500 (2016) 114000 88900 89600 102000 145000 170000
2020-07-17 15:45 14.29 104000 186000 (2019) 88500 (2016) 114000 88900 89600 102000 145000 170000
2020-07-17 14:45 14.24 104000 186000 (2019) 88500 (2016) 114000 88900 89600 102000 145000 170000
2020-07-17 13:45 14.14 103000 186000 (2019) 88500 (2016) 114000 88900 89600 102000 145000 170000
2020-07-17 12:45 14.04 102000 186000 (2019) 88500 (2016) 114000 88900 89600 102000 145000 170000
2020-07-17 11:45 13.93 101000 186000 (2019) 88500 (2016) 114000 88900 89600 102000 145000 170000
2020-07-17 10:45 13.83 100000 186000 (2019) 88500 (2016) 114000 88900 89600 102000 145000 170000
2020-07-17 09:45 13.68 98600 186000 (2019) 88500 (2016) 114000 88900 89600 102000 145000 170000
2020-07-17 08:45 13.61 98000 186000 (2019) 88500 (2016) 114000 88900 89600 102000 145000 170000
2020-07-17 07:45 13.46 96600 186000 (2019) 88500 (2016) 114000 88900 89600 102000 145000 170000
2020-07-17 06:45 13.34 95600 186000 (2019) 88500 (2016) 114000 88900 89600 102000 145000 170000
2020-07-17 05:45 13.22 94600 186000 (2019) 88500 (2016) 114000 88900 89600 102000 145000 170000
2020-07-17 04:45 13.14 93800 186000 (2019) 88500 (2016) 114000 88900 89600 102000 145000 170000
2020-07-17 03:45 13.01 92800 186000 (2019) 88500 (2016) 114000 88900 89600 102000 145000 170000
2020-07-17 02:45 12.86 91500 186000 (2019) 88500 (2016) 114000 88900 89600 102000 145000 170000
2020-07-17 01:45 12.74 90500 186000 (2019) 88500 (2016) 114000 88900 89600 102000 145000 170000
2020-07-17 00:45 12.64 89700 186000 (2019) 88500 (2016) 114000 88900 89600 102000 145000 170000
2020-07-16 23:45 12.50 88500 190000 (2019) 99800 (2017) 123000 101000 102000 106000 152000 175000
2020-07-16 22:45 12.37 87500 190000 (2019) 99800 (2017) 123000 101000 102000 106000 152000 175000
2020-07-16 21:45 12.29 86800 190000 (2019) 99800 (2017) 123000 101000 102000 106000 152000 175000
2020-07-16 20:45 12.19 86000 190000 (2019) 99800 (2017) 123000 101000 102000 106000 152000 175000
2020-07-16 19:45 12.08 85200 190000 (2019) 99800 (2017) 123000 101000 102000 106000 152000 175000
2020-07-16 18:45 11.98 84400 190000 (2019) 99800 (2017) 123000 101000 102000 106000 152000 175000
2020-07-16 17:45 11.94 84100 190000 (2019) 99800 (2017) 123000 101000 102000 106000 152000 175000
2020-07-16 16:45 11.83 83200 190000 (2019) 99800 (2017) 123000 101000 102000 106000 152000 175000
2020-07-16 15:45 11.73 82400 190000 (2019) 99800 (2017) 123000 101000 102000 106000 152000 175000
2020-07-16 14:45 11.67 82000 190000 (2019) 99800 (2017) 123000 101000 102000 106000 152000 175000
2020-07-16 13:45 11.63 81700 190000 (2019) 99800 (2017) 123000 101000 102000 106000 152000 175000
2020-07-16 12:45 11.58 81300 190000 (2019) 99800 (2017) 123000 101000 102000 106000 152000 175000
2020-07-16 11:45 11.54 81000 190000 (2019) 99800 (2017) 123000 101000 102000 106000 152000 175000
2020-07-16 10:45 11.51 80800 190000 (2019) 99800 (2017) 123000 101000 102000 106000 152000 175000
2020-07-16 09:45 11.47 80400 190000 (2019) 99800 (2017) 123000 101000 102000 106000 152000 175000
2020-07-16 08:45 11.39 79800 190000 (2019) 99800 (2017) 123000 101000 102000 106000 152000 175000
2020-07-16 07:45 11.43 80100 190000 (2019) 99800 (2017) 123000 101000 102000 106000 152000 175000
2020-07-16 06:45 11.37 79700 190000 (2019) 99800 (2017) 123000 101000 102000 106000 152000 175000
2020-07-16 05:45 11.33 79400 190000 (2019) 99800 (2017) 123000 101000 102000 106000 152000 175000
2020-07-16 04:45 11.29 79100 190000 (2019) 99800 (2017) 123000 101000 102000 106000 152000 175000
2020-07-16 03:45 11.23 78700 190000 (2019) 99800 (2017) 123000 101000 102000 106000 152000 175000
2020-07-16 02:45 11.18 78300 190000 (2019) 99800 (2017) 123000 101000 102000 106000 152000 175000
2020-07-16 01:45 11.14 78000 190000 (2019) 99800 (2017) 123000 101000 102000 106000 152000 175000
2020-07-16 00:45 11.08 77500 190000 (2019) 99800 (2017) 123000 101000 102000 106000 152000 175000
2020-07-15 23:45 11.06 77400 195000 (2019) 94800 (2017) 128000 97000 100000 121000 160000 181000
2020-07-15 22:45 11.01 77000 195000 (2019) 94800 (2017) 128000 97000 100000 121000 160000 181000
2020-07-15 21:45 10.98 76800 195000 (2019) 94800 (2017) 128000 97000 100000 121000 160000 181000
2020-07-15 20:45 10.95 76600 195000 (2019) 94800 (2017) 128000 97000 100000 121000 160000 181000
2020-07-15 19:45 10.93 76400 195000 (2019) 94800 (2017) 128000 97000 100000 121000 160000 181000
2020-07-15 18:45 10.90 76200 195000 (2019) 94800 (2017) 128000 97000 100000 121000 160000 181000
2020-07-15 17:45 10.86 75900 195000 (2019) 94800 (2017) 128000 97000 100000 121000 160000 181000
2020-07-15 16:45 10.84 75800 195000 (2019) 94800 (2017) 128000 97000 100000 121000 160000 181000
2020-07-15 15:45 10.84 75800 195000 (2019) 94800 (2017) 128000 97000 100000 121000 160000 181000
2020-07-15 14:45 10.84 75800 195000 (2019) 94800 (2017) 128000 97000 100000 121000 160000 181000
2020-07-15 13:45 10.81 75600 195000 (2019) 94800 (2017) 128000 97000 100000 121000 160000 181000
2020-07-15 12:45 10.78 75400 195000 (2019) 94800 (2017) 128000 97000 100000 121000 160000 181000
2020-07-15 11:45 10.80 75500 195000 (2019) 94800 (2017) 128000 97000 100000 121000 160000 181000
2020-07-15 10:45 10.77 75300 195000 (2019) 94800 (2017) 128000 97000 100000 121000 160000 181000
2020-07-15 09:45 10.79 75400 195000 (2019) 94800 (2017) 128000 97000 100000 121000 160000 181000
2020-07-15 08:45 10.75 75200 195000 (2019) 94800 (2017) 128000 97000 100000 121000 160000 181000
2020-07-15 07:45 10.74 75100 195000 (2019) 94800 (2017) 128000 97000 100000 121000 160000 181000
2020-07-15 06:45 10.76 75200 195000 (2019) 94800 (2017) 128000 97000 100000 121000 160000 181000
2020-07-15 05:45 10.75 75200 195000 (2019) 94800 (2017) 128000 97000 100000 121000 160000 181000
2020-07-15 04:45 10.77 75300 195000 (2019) 94800 (2017) 128000 97000 100000 121000 160000 181000
2020-07-15 03:45 10.77 75300 195000 (2019) 94800 (2017) 128000 97000 100000 121000 160000 181000
2020-07-15 02:45 10.76 75200 195000 (2019) 94800 (2017) 128000 97000 100000 121000 160000 181000
2020-07-15 01:45 10.76 75200 195000 (2019) 94800 (2017) 128000 97000 100000 121000 160000 181000
2020-07-15 00:45 10.76 75200 195000 (2019) 94800 (2017) 128000 97000 100000 121000 160000 181000
2020-07-14 23:45 10.74 75100 200000 (2019) 74300 (2017) 128000 80800 90600 119000 171000 188000
2020-07-14 22:45 10.74 75100 200000 (2019) 74300 (2017) 128000 80800 90600 119000 171000 188000
2020-07-14 21:45 10.73 75000 200000 (2019) 74300 (2017) 128000 80800 90600 119000 171000 188000
2020-07-14 20:45 10.74 75100 200000 (2019) 74300 (2017) 128000 80800 90600 119000 171000 188000
2020-07-14 19:45 10.74 75100 200000 (2019) 74300 (2017) 128000 80800 90600 119000 171000 188000
2020-07-14 18:45 10.72 74900 200000 (2019) 74300 (2017) 128000 80800 90600 119000 171000 188000
2020-07-14 17:45 10.74 75100 200000 (2019) 74300 (2017) 128000 80800 90600 119000 171000 188000
2020-07-14 16:45 10.70 74800 200000 (2019) 74300 (2017) 128000 80800 90600 119000 171000 188000
2020-07-14 15:45 10.71 74900 200000 (2019) 74300 (2017) 128000 80800 90600 119000 171000 188000
2020-07-14 14:45 10.69 74700 200000 (2019) 74300 (2017) 128000 80800 90600 119000 171000 188000
2020-07-14 13:45 10.71 74900 200000 (2019) 74300 (2017) 128000 80800 90600 119000 171000 188000
2020-07-14 12:45 10.71 74900 200000 (2019) 74300 (2017) 128000 80800 90600 119000 171000 188000
2020-07-14 11:45 10.75 75200 200000 (2019) 74300 (2017) 128000 80800 90600 119000 171000 188000
2020-07-14 10:45 10.70 74800 200000 (2019) 74300 (2017) 128000 80800 90600 119000 171000 188000
2020-07-14 09:45 10.77 75300 200000 (2019) 74300 (2017) 128000 80800 90600 119000 171000 188000
2020-07-14 08:45 10.76 75200 200000 (2019) 74300 (2017) 128000 80800 90600 119000 171000 188000
2020-07-14 07:45 10.77 75300 200000 (2019) 74300 (2017) 128000 80800 90600 119000 171000 188000
2020-07-14 06:45 10.83 75700 200000 (2019) 74300 (2017) 128000 80800 90600 119000 171000 188000
2020-07-14 05:45 10.86 75900 200000 (2019) 74300 (2017) 128000 80800 90600 119000 171000 188000
2020-07-14 04:45 10.87 76000 200000 (2019) 74300 (2017) 128000 80800 90600 119000 171000 188000
2020-07-14 03:45 10.89 76200 200000 (2019) 74300 (2017) 128000 80800 90600 119000 171000 188000
2020-07-14 02:45 10.89 76200 200000 (2019) 74300 (2017) 128000 80800 90600 119000 171000 188000
2020-07-14 01:45 10.92 76400 200000 (2019) 74300 (2017) 128000 80800 90600 119000 171000 188000
2020-07-14 00:45 10.93 76400 200000 (2019) 74300 (2017) 128000 80800 90600 119000 171000 188000
2020-07-13 23:45 10.94 76500 205000 (2019) 71000 (2017) 123000 73400 76900 107000 177000 194000
2020-07-13 22:45 10.97 76700 205000 (2019) 71000 (2017) 123000 73400 76900 107000 177000 194000
2020-07-13 21:45 10.98 76800 205000 (2019) 71000 (2017) 123000 73400 76900 107000 177000 194000
2020-07-13 20:45 11.02 77100 205000 (2019) 71000 (2017) 123000 73400 76900 107000 177000 194000
2020-07-13 19:45 11.02 77100 205000 (2019) 71000 (2017) 123000 73400 76900 107000 177000 194000
2020-07-13 18:45 11.03 77200 205000 (2019) 71000 (2017) 123000 73400 76900 107000 177000 194000
2020-07-13 17:45 11.03 77200 205000 (2019) 71000 (2017) 123000 73400 76900 107000 177000 194000
2020-07-13 16:45 11.06 77400 205000 (2019) 71000 (2017) 123000 73400 76900 107000 177000 194000
2020-07-13 15:45 11.05 77300 205000 (2019) 71000 (2017) 123000 73400 76900 107000 177000 194000
2020-07-13 14:45 11.04 77300 205000 (2019) 71000 (2017) 123000 73400 76900 107000 177000 194000
2020-07-13 13:45 11.10 77700 205000 (2019) 71000 (2017) 123000 73400 76900 107000 177000 194000
2020-07-13 12:45 11.10 77700 205000 (2019) 71000 (2017) 123000 73400 76900 107000 177000 194000
2020-07-13 11:45 11.12 77800 205000 (2019) 71000 (2017) 123000 73400 76900 107000 177000 194000
2020-07-13 10:45 11.09 77600 205000 (2019) 71000 (2017) 123000 73400 76900 107000 177000 194000
2020-07-13 09:45 11.10 77700 205000 (2019) 71000 (2017) 123000 73400 76900 107000 177000 194000
2020-07-13 08:45 11.16 78100 205000 (2019) 71000 (2017) 123000 73400 76900 107000 177000 194000
2020-07-13 07:45 11.17 78200 205000 (2019) 71000 (2017) 123000 73400 76900 107000 177000 194000
2020-07-13 06:45 11.19 78400 205000 (2019) 71000 (2017) 123000 73400 76900 107000 177000 194000
2020-07-13 05:45 11.21 78500 205000 (2019) 71000 (2017) 123000 73400 76900 107000 177000 194000
2020-07-13 04:45 11.23 78700 205000 (2019) 71000 (2017) 123000 73400 76900 107000 177000 194000
2020-07-13 03:45 11.20 78400 205000 (2019) 71000 (2017) 123000 73400 76900 107000 177000 194000
2020-07-13 02:45 11.20 78400 205000 (2019) 71000 (2017) 123000 73400 76900 107000 177000 194000
2020-07-13 01:45 11.22 78600 205000 (2019) 71000 (2017) 123000 73400 76900 107000 177000 194000
2020-07-13 00:45 11.25 78800 205000 (2019) 71000 (2017) 123000 73400 76900 107000 177000 194000
2020-07-12 23:45 11.24 78700 213000 (2019) 73900 (2017) 125000 76600 80600 110000 176000 198000
2020-07-12 22:45 11.25 78800 213000 (2019) 73900 (2017) 125000 76600 80600 110000 176000 198000
2020-07-12 21:45 11.26 78900 213000 (2019) 73900 (2017) 125000 76600 80600 110000 176000 198000
2020-07-12 20:45 11.28 79000 213000 (2019) 73900 (2017) 125000 76600 80600 110000 176000 198000
2020-07-12 19:45 11.30 79200 213000 (2019) 73900 (2017) 125000 76600 80600 110000 176000 198000
2020-07-12 18:45 11.31 79200 213000 (2019) 73900 (2017) 125000 76600 80600 110000 176000 198000
2020-07-12 17:45 11.29 79100 213000 (2019) 73900 (2017) 125000 76600 80600 110000 176000 198000
2020-07-12 16:45 11.30 79200 213000 (2019) 73900 (2017) 125000 76600 80600 110000 176000 198000
2020-07-12 15:45 11.33 79400 213000 (2019) 73900 (2017) 125000 76600 80600 110000 176000 198000
2020-07-12 14:45 11.33 79400 213000 (2019) 73900 (2017) 125000 76600 80600 110000 176000 198000
2020-07-12 13:45 11.33 79400 213000 (2019) 73900 (2017) 125000 76600 80600 110000 176000 198000
2020-07-12 12:45 11.32 79300 213000 (2019) 73900 (2017) 125000 76600 80600 110000 176000 198000
2020-07-12 11:45 11.35 79500 213000 (2019) 73900 (2017) 125000 76600 80600 110000 176000 198000
2020-07-12 10:45 11.33 79400 213000 (2019) 73900 (2017) 125000 76600 80600 110000 176000 198000
2020-07-12 09:45 11.33 79400 213000 (2019) 73900 (2017) 125000 76600 80600 110000 176000 198000
2020-07-12 08:45 11.32 79300 213000 (2019) 73900 (2017) 125000 76600 80600 110000 176000 198000
2020-07-12 07:45 11.39 79800 213000 (2019) 73900 (2017) 125000 76600 80600 110000 176000 198000
2020-07-12 06:45 11.39 79800 213000 (2019) 73900 (2017) 125000 76600 80600 110000 176000 198000
2020-07-12 05:45 11.40 79900 213000 (2019) 73900 (2017) 125000 76600 80600 110000 176000 198000
2020-07-12 04:45 11.42 80100 213000 (2019) 73900 (2017) 125000 76600 80600 110000 176000 198000
2020-07-12 03:45 11.41 80000 213000 (2019) 73900 (2017) 125000 76600 80600 110000 176000 198000
2020-07-12 02:45 11.42 80100 213000 (2019) 73900 (2017) 125000 76600 80600 110000 176000 198000
2020-07-12 01:45 11.46 80400 213000 (2019) 73900 (2017) 125000 76600 80600 110000 176000 198000
2020-07-12 00:45 11.48 80500 213000 (2019) 73900 (2017) 125000 76600 80600 110000 176000 198000

A total of 739 rows are displayed for years 2015 through 2019.